Погода в Плешково

Россия / Алтайский край     52°44′48″N   84°47′51″E
темп.,
°C
ветер,
м/с
пор.,
м/с
влажн.,
%
обл.,
%
осадки,
мм/ч
давл.,
гПа
погр.,
м
15 апреля, чт
чт1501:00+1юз3690100 0.0 1028110
04:00+1юз2696100 0.0 1027101
07:00+1юз1198100 0.0 102834
10:00+2ююз13100100 0.1 102862
13:00+3ююз0199100 0.1 102868
16:00+3ю11100100 0.0 102734
19:00+2ююв11100100 0.1 102627
22:00+1ююв23100100 0.0 102678
16 апреля, пт
пт1601:00+1ю23100100 0.0 102572
04:00+1ю25100100 0.0 102492
07:00+1ю2410099 0.1 102370
10:00+4ю259852 0.0 1022100
13:00+10ююз358516 0.0 1020210
16:00+12юз36707 0.0 1018246
19:00+10ююз33835 0.0 101732
22:00+6ю33874 0.0 101737
17 апреля, сб
сб1701:00+5ююз3385100 0.0 101518
04:00+6ссз2289100 0.0 101528
07:00+3ссв51094100 0.4 1016365
10:00+2св5887100 1.0 1018417
13:00+2св4786100 1.1 1017391
16:00+2ссв238599 0.0 1017318
19:00+3з128398 0.0 1016410
22:00+2юз2491100 0.0 1017131
18 апреля, вс
вс1801:00+2зсз3897100 0.1 1018479
04:00+1зюз249228 0.1 101985
07:00+1з2289100 0.1 101935
10:00+4зюз1266100 0.0 1019454
13:00+6зюз3552100 0.0 10181439
16:00+8зюз3551100 0.0 10151384
19:00+5юв3588100 0.6 1013731
22:00+5вюв489098 0.5 1009240
19 апреля, пн
пн1901:00+5ю489283 0.8 1006145
04:00+8юз71587100 1.1 1004544
07:00+7з71283100 1.4 1003871
10:00+2з71576100 1.1 10071122
13:00+4з91349100 1.1 10101670
16:00+3з8114289 0.0 10131850
19:00+3з6842100 0.0 10151919
22:000зсз37556 0.0 1017331